DW9987 Weather Reports


time (UTC)temp
C
wind
direction
speed
KPH
gust
KPH
rain 1hr
cm
rain 24hr
cm
rain mn
cm
humidity
%
barometer
mb
20260510214554 18 5 4.8 14.5 0.00 0.00 0.00 27 1019.2
20260510213115 18 336 8.0 25.7 0.00 0.00 0.00 26 1019.0
20260510211558 18 5 9.7 17.7 0.00 0.00 0.00 27 1018.7
20260510210051 18 355 6.4 25.7 0.00 0.00 0.00 29 1018.7
20260510204611 18 16 9.7 24.1 0.00 0.00 0.00 28 1018.8
20260510203051 18 345 9.7 17.7 0.00 0.00 0.00 28 1018.9
20260510201552 18 360 9.7 17.7 0.00 0.00 0.00 28 1019.2
20260510200051 18 346 1.6 14.5 0.00 0.00 0.00 31 1019.3
20260510194559 18 225 1.6 12.9 0.00 0.00 0.00 28 1019.2
20260510193048 18 49 3.2 14.5 0.00 0.00 0.00 28 1019.3
20260510191547 17 348 1.6 19.3 0.00 0.00 0.00 26 1019.2
20260510190057 18 350 8.0 22.5 0.00 0.00 0.00 28 1019.2
20260510184545 17 351 8.0 16.1 0.00 0.00 0.00 29 1019.3
20260510183042 17 10 9.7 19.3 0.00 0.00 0.00 30 1019.3
20260510181552 17 341 3.2 16.1 0.00 0.00 0.00 32 1019.2
20260510180041 17 319 3.2 14.5 0.00 0.00 0.00 31 1019.3
20260510174550 17 336 3.2 16.1 0.00 0.00 0.00 32 1019.3
20260510173040 17 360 3.2 19.3 0.00 0.00 0.00 36 1019.5
20260510171555 17 285 3.2 17.7 0.00 0.00 0.00 33 1019.7
20260510170044 16 219 3.2 11.3 0.00 0.00 0.00 33 1019.8
20260510164534 16 5 6.4 19.3 0.00 0.00 0.00 32 1019.8
20260510163038 16 360 4.8 12.9 0.00 0.00 0.00 35 1019.7
20260510161528 15 48 8.0 16.1 0.00 0.00 0.00 36 1019.4
20260510160032 15 323 3.2 20.9 0.00 0.00 0.00 39 1019.3
20260510154526 15 11 4.8 11.3 0.00 0.00 0.00 35 1019.1
20260510153035 15 5 0.0 8.0 0.00 0.00 0.00 39 1019.1
20260510151527 15 5 1.6 9.7 0.00 0.00 0.00 40 1019.1
20260510150021 15 191 1.6 6.4 0.00 0.00 0.00 41 1019.2
20260510144517 14 275 0.0 8.0 0.00 0.00 0.00 40 1019.0
20260510143015 13 188 1.6 8.0 0.00 0.00 0.00 42 1019.1
20260510141514 13 211 1.6 9.7 0.00 0.00 0.00 39 1019.1
20260510140010 13 268 0.0 4.8 0.00 0.00 0.00 45 1018.9
20260510134506 12 167 0.0 8.0 0.00 0.00 0.00 49 1018.7
20260510133002 11 297 0.0 4.8 0.00 0.00 0.00 54 1018.6
20260510131557 9 281 0.0 3.2 0.00 0.00 0.00 63 1018.6
20260510130055 7 301 0.0 1.6 0.00 0.00 0.00 74 1018.5
20260510124555 6 300 0.0 0.0 0.00 0.00 0.00 81 1018.2
20260510123053 5 300 0.0 0.0 0.00 0.00 0.00 84 1018.2
20260510121549 5 300 0.0 0.0 0.00 0.00 0.00 84 1017.9
20260510120047 4 300 0.0 0.0 0.00 0.00 0.00 85 1017.6
20260510114557 3 300 0.0 0.0 0.00 0.00 0.00 85 1017.4
20260510113051 3 300 0.0 0.0 0.00 0.00 0.00 85 1017.1
20260510111543 3 300 0.0 0.0 0.00 0.00 0.00 84 1016.8
20260510110053 3 300 0.0 0.0 0.00 0.00 0.00 84 1016.7
20260510104539 3 300 0.0 0.0 0.00 0.00 0.00 83 1016.5
20260510103039 4 300 0.0 0.0 0.00 0.00 0.00 82 1016.1
20260510101532 4 300 0.0 0.0 0.00 0.00 0.00 81 1016.0
20260510100042 5 300 0.0 0.0 0.00 0.00 0.00 82 1016.0
20260510094537 5 300 0.0 0.0 0.00 0.00 0.00 83 1015.7
20260510093027 5 300 0.0 0.0 0.00 0.00 0.00 84 1015.4
20260510091526 5 300 0.0 0.0 0.00 0.00 0.00 86 1015.4
20260510090023 5 300 0.0 0.0 0.00 0.00 0.00 87 1015.2
20260510084522 5 300 0.0 0.0 0.00 0.00 0.00 88 1015.5
20260510083020 5 300 0.0 0.0 0.00 0.00 0.00 88 1015.3
20260510081524 5 300 0.0 0.0 0.00 0.00 0.00 86 1014.9
20260510080035 6 300 0.0 0.0 0.00 0.00 0.00 85 1014.6
20260510074511 6 300 0.0 0.0 0.00 0.00 0.00 85 1014.3
20260510073007 6 300 0.0 0.0 0.00 0.00 0.00 83 1013.8
20260510071503 6 300 0.0 0.0 0.00 0.00 0.00 82 1013.5
20260510070001 6 300 0.0 0.0 0.00 0.00 0.00 82 1013.3
20260510064559 7 300 0.0 0.0 0.00 0.00 0.00 82 1013.1
20260510063056 7 300 0.0 0.0 0.00 0.00 0.00 81 1013.0
20260510061554 7 300 0.0 0.0 0.00 0.00 0.00 78 1012.9
20260510060052 8 300 0.0 0.0 0.00 0.00 0.00 78 1012.8
20260510054549 8 300 0.0 0.0 0.00 0.00 0.00 74 1012.8
20260510053052 8 300 0.0 0.0 0.00 0.00 0.00 72 1012.6
20260510051549 8 300 0.0 0.0 0.00 0.00 0.00 70 1012.3
20260510050040 9 300 0.0 0.0 0.00 0.00 0.00 69 1012.1
20260510044537 9 300 0.0 0.0 0.00 0.00 0.00 67 1011.9
20260510043034 10 300 0.0 0.0 0.00 0.00 0.00 64 1011.7
20260510041531 11 300 0.0 0.0 0.00 0.00 0.00 62 1011.3
20260510040030 11 300 0.0 0.0 0.00 0.00 0.00 60 1011.2
20260510034527 12 300 0.0 0.0 0.00 0.00 0.00 58 1011.0
20260510033031 12 300 0.0 0.0 0.00 0.00 0.00 61 1010.7
20260510031527 13 355 0.0 1.6 0.00 0.00 0.00 60 1010.5
20260510030021 13 355 0.0 0.0 0.00 0.00 0.00 54 1010.2
20260510024521 14 355 0.0 0.0 0.00 0.00 0.00 51 1009.9
20260510023018 15 355 0.0 0.0 0.00 0.00 0.00 49 1009.6
20260510021536 16 355 0.0 0.0 0.00 0.00 0.00 47 1009.3
20260510020012 17 355 0.0 4.8 0.00 0.00 0.00 43 1008.8
20260510014517 17 360 3.2 12.9 0.00 0.00 0.00 41 1008.4
20260510013006 18 307 3.2 12.9 0.00 0.00 0.00 41 1008.0
20260510011504 18 351 0.0 6.4 0.00 0.00 0.00 39 1007.7
20260510004558 20 360 3.2 14.5 0.00 0.00 0.00 35 1007.0
20260510003100 20 360 4.8 14.5 0.00 0.00 0.00 34 1006.8
20260510001553 20 16 4.8 11.3 0.00 0.00 0.00 38 1006.4
20260510000052 21 339 0.0 20.9 0.00 0.00 0.00 41 1006.1
20260509234549 21 186 4.8 12.9 0.00 0.00 0.00 41 1005.8
20260509233049 21 90 3.2 11.3 0.00 0.00 0.00 40 1005.8
20260509231551 21 211 3.2 14.5 0.00 0.00 0.00 41 1005.6
20260509230051 21 293 3.2 17.7 0.00 0.00 0.00 40 1005.5
20260509224547 21 69 3.2 17.7 0.00 0.00 0.00 39 1005.4
20260509223048 21 167 6.4 14.5 0.00 0.00 0.00 39 1005.4
20260509221547 21 275 3.2 14.5 0.00 0.00 0.00 39 1005.2